[keps] orb09183.2l.amsat
Ray Hoad
r.hoad at att.net
Thu Jul 2 19:55:14 PDT 2009
SB KEPS @ AMSAT $ORB09183.N
2Line Orbital Elements 09183.AMSAT
HR AMSAT ORBITAL ELEMENTS FOR AMATEUR SATELLITES IN NASA FORMAT
FROM WA5QGD FORT WORTH,TX July 2, 2009
Send Subscribe/unsubscribe to KEPS at
http://www.amsat.org/mailman/listinfo/keps
BID: ORB09183.N
DECODE 2-LINE ELSETS WITH THE FOLLOWING KEY:
1 AAAAAU 00 0 0 BBBBB.BBBBBBBB .CCCCCCCC 00000-0 00000-0 0 DDDZ
2 AAAAA EEE.EEEE FFF.FFFF GGGGGGG HHH.HHHH III.IIII JJ.JJJJJJJJKKKKKZ
KEY: A-CATALOGNUM B-EPOCHTIME C-DECAY D-ELSETNUM E-INCLINATION F-RAAN
G-ECCENTRICITY H-ARGPERIGEE I-MNANOM J-MNMOTION K-ORBITNUM Z-CHECKSUM
TO ALL RADIO AMATEURS BT
AO-07
1 07530U 74089B 09182.77311510 -.00000027 00000-0 10000-3 0 05190
2 07530 101.4266 206.9140 0011643 238.7757 121.2173 12.53575826584540
FO-29
1 24278U 96046B 09182.71877846 -.00000124 00000-0 -87775-4 0 00769
2 24278 098.5528 054.8007 0350211 312.8781 044.3432 13.52943547635713
SO-33
1 25509U 98061B 09182.73474374 -.00000018 00000-0 -14631-4 0 4876
2 25509 031.4321 330.2298 0354090 105.7355 258.2598 14.28253975557913
RS-22
1 27939U 03042A 09182.83157652 .00000040 00000-0 16513-4 0 08304
2 27939 097.9433 057.1670 0014797 086.9437 273.3479 14.63326015307712
VO-52
1 28650U 05017B 09182.83982243 -.00000158 00000-0 -13438-4 0 02636
2 28650 097.7416 243.9371 0026618 344.2726 015.7618 14.81596860224810
AO-16
1 20439U 90005D 09183.50802374 .00000017 00000-0 21658-4 0 6410
2 20439 098.2792 151.2130 0011729 122.6313 237.6008 14.31827582 15348
LO-19
1 20442U 90005G 09182.65418699 -.00000078 00000-0 -13991-4 0 05590
2 20442 098.2419 157.6050 0012920 122.3976 237.8469 14.32062403015386
AO-27
1 22825U 93061C 09182.84687692 -.00000063 00000-0 -80710-5 0 02814
2 22825 098.4362 135.8087 0007896 215.8340 144.2308 14.29268103822008
IO-26
1 22826U 93061D 09182.76450543 .00000009 00000-0 20185-4 0 72
2 22826 098.4305 136.4719 0008295 212.8419 147.2254 14.29520626822096
GO-32
1 25397U 98043D 09182.76663270 -.00000162 00000-0 -53861-4 0 09333
2 25397 098.3255 204.3258 0001164 160.3494 199.7748 14.23159621570206
NO-44
1 26931U 01043C 09182.83659350 -.00000057 00000-0 10158-4 0 02061
2 26931 067.0534 026.6032 0005709 274.2632 085.7782 14.29560473404673
SO-50
1 27607U 02058C 09182.80025571 -.00000089 00000-0 82643-5 0 09250
2 27607 064.5601 340.7069 0065384 202.2847 157.5396 14.71444207350824
CO-55
1 27844U 03031E 09183.55729194 .00000033 00000-0 35778-4 0 6138
2 27844 098.7129 192.5045 0011062 097.9347 262.3085 14.20644658311447
CO-57
1 27848U 03031J 09182.55080899 .00000033 00000-0 35693-4 0 05611
2 27848 098.7150 190.5733 0010606 103.6760 256.5614 14.20445968311260
AO-51
1 28375U 04025K 09182.75830528 -.00000002 00000-0 11856-4 0 04289
2 28375 098.0513 191.5111 0085053 080.5398 280.5385 14.40645921263059
CO-56
1 28941U 06005C 09182.79933625 .00072481 44106-5 22282-3 0 02162
2 28941 098.1401 359.9973 0080115 077.5962 283.4235 15.86619436189560
GENESAT1
1 29655U 06058C 09182.91585910 .00010878 00000-0 10646-3 0 07592
2 29655 040.0213 091.0058 0003258 270.9258 089.1194 15.65884563144780
CP3
1 31129U 07012N 09182.77987531 .00000132 00000-0 41420-4 0 00355
2 31129 097.9890 235.1593 0101238 239.4819 119.6357 14.52143418117003
CO-65
1 32785U 08021C 09182.44362509 .00000207 00000-0 33255-4 0 04074
2 32785 097.9458 246.2940 0014764 350.2822 009.8113 14.81495927063551
KKS-1
1 33493U 09002B 09183.77706598 .00000245 00000-0 38849-4 0 5301
2 33493 098.0580 296.0552 0019858 187.5348 172.5572 14.80692483 23773
SOHLA-1
1 33496U 09002E 09183.77594779 .00000016 00000-0 10846-4 0 4920
2 33496 098.0394 292.8418 0005499 227.3072 132.7676 14.69438482 23561
NOAA-10
1 16969U 86073A 09182.66741184 .00000039 00000-0 34112-4 0 06705
2 16969 098.6907 209.2358 0012565 150.9170 209.2709 14.27389576185570
NOAA-11
1 19531U 88089A 09182.84560425 -.00000117 00000-0 -37888-4 0 06868
2 19531 098.7849 272.5732 0012303 069.2975 290.9497 14.14897867071598
NOAA-12
1 21263U 91032A 09182.98688847 -.00000001 00000-0 18294-4 0 01944
2 21263 098.7715 191.0524 0013479 101.1502 259.1194 14.25583610942505
MET-3/5
1 21655U 91056A 09182.96324426 .00000051 00000-0 10000-3 0 07635
2 21655 082.5526 196.0556 0014111 138.5997 221.6197 13.17019755859572
MET-2/21
1 22782U 93055A 09182.49733649 -.00000042 00000-0 -51476-4 0 05012
2 22782 082.5470 170.6568 0021126 309.5772 050.3515 13.83635510799589
OKEAN-4
1 23317U 94066A 09183.75637658 .00000278 00000-0 31406-4 0 9512
2 23317 082.5414 319.9560 0021102 317.3028 042.6534 14.82706535794673
NOAA-14
1 23455U 94089A 09182.82062498 .00000041 00000-0 45243-4 0 06745
2 23455 098.9081 260.4500 0010107 145.1936 214.9880 14.13765274747999
NOAA-15
1 25338U 98030A 09182.87080379 .00000097 00000-0 60132-4 0 09894
2 25338 098.5842 171.7550 0011020 021.3654 338.8008 14.24769817578863
RESURS
1 25394U 98043A 09182.98413336 -.00000015 00000-0 11307-4 0 02642
2 25394 098.3363 214.5772 0001735 135.9333 224.1992 14.24184973570507
FENGYUN1
1 25730U 99025A 09182.92212700 -.00000388 00000-0 -20333-3 0 08168
2 25730 098.7547 152.6464 0020095 171.2505 188.9019 14.07904849522397
OKEAN-0
1 25860U 99039A 09182.49911617 .00000004 00000-0 78507-5 0 07207
2 25860 097.7865 163.1105 0001699 096.2353 263.9046 14.73578381535252
NOAA-16
1 26536U 00055A 09182.81340068 -.00000204 00000-0 -84922-4 0 04668
2 26536 099.1760 186.8334 0009647 236.7347 123.2884 14.12522834452367
NOAA-17
1 27453U 02032A 09182.82568294 .00000143 00000-0 80274-4 0 04709
2 27453 098.4828 241.3916 0012885 082.8032 277.4580 14.24074129364836
NOAA-18
1 28654U 05018A 09182.79382125 -.00000097 00000-0 -29062-4 0 09593
2 28654 098.9063 125.9201 0013737 325.8357 034.1935 14.11267051212015
NOAA-19
1 33591U 09005A 09182.84790527 .00000015 00000-0 31969-4 0 01627
2 33591 098.7451 128.2272 0013789 197.6784 162.3931 14.10966984020501
HUBBLE
1 20580U 90037B 09182.21105557 .00001468 00000-0 10000-3 0 04145
2 20580 028.4715 010.7573 0003745 065.8123 294.2958 15.00816593851967
ISS
1 25544U 98067A 09182.83210648 -.00012261 00000-0 -79402-4 0 01398
2 25544 051.6394 231.7114 0007698 173.9945 162.7813 15.74119689608257
CO-58
1 28895U 05043F 09181.70427705 -.00000046 00000-0 39329-7 0 03386
2 28895 098.0569 071.9423 0017055 308.6022 051.3672 14.59777704195703
FALCON
1 30776U 07006E 09183.83951176 .00000212 00000-0 18359-4 0 6045
2 30776 035.4346 004.4431 0001496 006.0267 354.0467 15.03263538127451
MAST
1 31126U 07012K 09182.69739649 -.00000041 00000-0 14039-5 0 6294
2 31126 097.9871 236.8385 0093719 234.5531 124.6911 14.53503467117149
CAPE1
1 31130U 07012P 09183.85308816 .00000102 00000-0 34638-4 0 6389
2 31130 097.9895 236.0895 0101727 236.2457 122.9001 14.52068853116967
COMPASS
1 32787U 08021E 09183.83750027 .00000143 00000-0 25036-4 0 3982
2 32787 097.9421 247.5295 0015464 346.1395 013.9386 14.81621145 63761
AAUSAT2
1 32788U 08021F 09182.72361495 -.00000035 00000-0 23624-5 0 04015
2 32788 097.9399 246.4851 0015352 351.3245 008.7693 14.81742629063607
DO-64
1 32789U 08021G 09183.75833362 .00000534 00000-0 74474-4 0 4096
2 32789 097.9469 247.6843 0015595 345.9034 014.1740 14.81735569 63759
CO-66
1 32791U 08021J 09183.20671491 .00000285 00000-0 43179-4 0 3913
2 32791 097.9443 246.9380 0016209 346.5680 013.5093 14.81449014 63637
RS-30
1 32953U 08025A 09183.72430702 .00000010 00000-0 000000 0 3447
2 32953 082.5008 246.9504 0020136 141.8948 218.3568 12.43002084 50321
TACSAT-3
1 35001U 09028A 09182.94252033 .00001440 00000-0 42201-4 0 00539
2 35001 040.4542 152.4144 0025955 273.0360 086.7486 15.38875619006624
PHARMSAT
1 35002U 09028B 09182.98577738 .00001470 00000-0 41866-4 0 00467
2 35002 040.4672 151.8923 0028645 277.3848 082.3717 15.39646906006629
HAWKSAT1
1 35003U 09028C 09183.82151972 .00001113 00000-0 32874-4 0 418
2 35003 040.4694 146.7958 0029696 284.9339 074.8193 15.39899600 6761
CP6
1 35004U 09028D 09182.97403704 .00003168 00000-0 81903-4 0 00438
2 35004 040.4585 151.7652 0029251 280.8623 078.9027 15.40127158006626
AEROCUB3
1 35005U 09028E 09183.88716973 .00003398 00000-0 87922-4 0 358
2 35005 040.4736 146.4326 0029254 283.9219 075.8343 15.39957063 6768
/EX
More information about the Keps
mailing list